Showing default

IOD2_STARTICAL, 64538

Orbit data source: Space-Track

IOD2_STARTICAL, 64538 is a Spanish payload satellite in SSO that was launched on Mon, 23 Jun 2025 UTC via an FALCON 9 launch vehicle from the Air Force Western Test Range (AFWTR). Payload-class satellites include a variety of spacecraft equipped with specific instruments for various scientific and technological missions. These include communications satellites like Starlink; space stations such as the ISS; scientific satellites like the Hubble; Earth observation satellites from companies like Planet Labs, Umbra, and HawkEye 360; GPS; miniature CubeSats for education and research; and military/defense satellites.

Loading next visibility...
Identifier
64538, 2025-135L
Orbit
SSO
Country
Flag of ESES / SPN
Related business
Manufacturer
NanoAvionics
Mission
Operational Commercial Communications
Bus & Motor
MP42, Unknown motor
Mass
~100 kg wet, ~100 kg dry
Launch date (UTC)
2025-06-23 (10 months ago)
Launch vehicle
FALCON 9
Launch site
Air Force Western Test Range (AFWTR)
Object type
Payload
Rocket body
Debris
Shape & HBR
Box + 2 Pan, 0.5 m
Radar Cross Section
0.146 m², Medium (>0.1 m² and < 1m²)

Expand to show TLE details & history
Last TLE update: 9 hours ago

TLE from 9 hours ago
0 IOD2_STARTICAL
1 64538U 25135L   26104.85733759  .00002531  00000-0  12112-3 0  9993
2 64538  97.4618 220.1035 0005651  52.1779 307.9967 15.19878725 45209
Epoch: 2026-04-14T20:34Z
TLE epoch observation values (Epoch: 2026-04-14T20:34:33.967Z)
Latitude
-0.00001°
Longitude
68.4344°
Altitude
506.901 km
Speed
7.612 km/s
True Right ascension
14h 40m 24s
True Declination
0° 00' 00"
Sunlit
Object was in full shadow at epoch
Visualization orbit readout
Latitude
Unknown
Longitude
Unknown
Altitude
Unknown
Speed
Unknown
Apparent Right ascension
Unknown
Apparent Declination
Unknown
Sunlit
N/A
Visualization observer readout
Local Sidereal Time
12:18:39
Azimuth
Unknown
Elevation
Unknown
Doppler factor
Unknown
Orbital elements
Apogee altitude
507.064 km
Perigee altitude
499.287 km
Semi-major axis
6,881.312 km
Eccentricity
0.00057
Inclination
97.4618°
RAAN
220.1035°
Arg. of periapsis
52.1779°
True anomaly
307.94565°
Mean anomaly
307.9967°
Eccentric anomaly
307.97118°
Mean motion
3.80221 °/min
Orbital period
94.68 mins
BSTAR
0.00012112
Loading maneuver chart data...
Computing Atmospheric mass density...
Loading historical data...
Loading historical data...
Loading historical data...
Loading historical data...
Loading historical data...
Loading historical data...
Loading historical data...

Documentation

Showing up to 5 results
|